Preview of NWS' New Version of Forecast
This preview is not operational and should not be used for support decisions.

Regional Weather Roundup (RWR)

Issued by National Weather Service (NWS)

                            
000
ASUS42 KTBW 230518
RWRFL 
FLORIDA REGIONAL WEATHER ROUNDUP
NATIONAL WEATHER SERVICE TAMPA BAY RUSKIN FL
100 AM EDT FRI AUG 23 2019

NOTE: "FAIR" INDICATES FEW OR NO CLOUDS BELOW 12,000 FEET WITH NO
SIGNIFICANT WEATHER AND/OR OBSTRUCTIONS TO VISIBILITY.

FLZ001>010-012>015-112-114-115-230600-
PANHANDLE FLORIDA
  
CITY           SKY/WX    TMP DP  RH WIND       PRES   REMARKS
PENSACOLA      MOCLDY    82  78  88 CALM      30.00F                  
PENSACOLA NAS  FAIR      79  77  94 CALM      30.00F                  
MILTON NAS     FAIR      75  75 100 N3        30.02S                  
CRESTVIEW      FAIR      76  74  93 CALM      30.03F                  
DUKE FIELD     FAIR      77  75  95 CALM      30.01F                  
VALPARAISO     FAIR      82  75  78 S5        30.01S                  
MARY ESTHER    PTCLDY    82  76  80 SW6       29.99F                  
TRI COUNTY     FAIR      77  75  93 CALM      30.03F                  
PANAMA CITY    FAIR      78  76  93 CALM      30.01F                  
TYNDALL AFB    FAIR      81  76  84 S5        30.01F                  
APALACHICOLA   FAIR      79  75  87 CALM      30.02F                  

STATION/POSITION SKY/WX   TEMP    WIND        PRES    WAVE   SWELL
                          AIR SEA DIR/SP/G            HT/PER HT/PER
                          (F)     (DEG/KT/KT) (MB)    (FT/S) (FT/S)
30.1N   87.6W              84 86  190/  8/ 10 1015.8F   1/ 7   2/ 7
29.2N   88.2W              84 86  210/  8/ 10 1015.6F   2/ 5   2/ 5
28.8N   86.0W                 86  180/  8/ 10 1016.1F   1/ 5   2/ 5
PANAMA CITY BEAC                  200/  9/ 10 1016.9F
TOWER C                    83     190/  2/  2 1016.9F
28.5N   84.5W                     260/  4/  4 1016.9F

$$
FLZ011-016>038-118-127-128-134-139-239-230600-
NORTH FLORIDA
  
CITY           SKY/WX    TMP DP  RH WIND       PRES   REMARKS
MARIANNA       FAIR      77  72  84 CALM      30.02F                  
TALLAHASSEE    FAIR      78  78 100 CALM      30.03S                  
PERRY          CLOUDY    79  78  97 SE3       30.05S                  
LIVE OAK       MOCLDY    79  77  94 CALM      30.05S                  
CROSS CITY     FAIR      80  77  91 E3        30.04F                  
LAKE CITY      FAIR      75  72  88 CALM      30.05F                  
GAINESVILLE    FAIR      75  73  93 E5        30.07F                  
WILLISTON      FAIR      75  74  96 CALM      30.05S                  
MAYPORT NAS    FAIR      80  76  87 S5        30.05F                  
JACKSONVILLE   FAIR      79  76  90 CALM      30.04F                  
JAX NAS        FAIR      83  76  79 SE7       30.05F                  
JAX CECIL      FAIR      75  73  94 CALM      30.05F                  
FERNANDINA BEA FAIR      80  77  90 MISG      30.05F                  
ST AUGUSTINE   FAIR      80  76  87 CALM      30.05F                  
PALM COAST     FAIR      76  74  93 CALM      30.05S                  

STATION/POSITION SKY/WX   TEMP    WIND        PRES    WAVE   SWELL
                          AIR SEA DIR/SP/G            HT/PER HT/PER
                          (F)     (DEG/KT/KT) (MB)    (FT/S) (FT/S)
SHELL POINT      NOT AVBL
KEATON BEACH               80      50/  2/  3 1017.1F
CEDAR KEY                  84      CALM  /  2 1017.5R
FERNANDINA                 85 85              1018.4F
30.7N   81.3W                 84                N/A     2/11
MAYPORT                    81 85  160/  3/  4 1018.2F
31.4N   80.9W              83 83  180/  8/  8 1017.4F   2/ 7   2/ 7
ST AUGUSTINE               82 82  140/  5/  5 1017.5F

$$
FLZ040-043>046-052-053-057-058-063-144-230600-
INTERIOR CENTRAL FLORIDA
  
CITY           SKY/WX    TMP DP  RH WIND       PRES   REMARKS
OCALA          FAIR      78  74  87 E6        30.06S                  
LEESBURG       FAIR      79  74  84 NE5       30.06R                  
SANFORD        FAIR      79  76  90 CALM      30.03F                  
ORLANDO EXEC   FAIR      80  74  81 E3        30.04F                  
ORLANDO INTL   FAIR      78  74  87 E3        30.03F                  
KISSIMMEE      FAIR      80  76  87 E3        30.04F                  
WINTER HAVEN   FAIR      80  74  81 E5        30.04F                  
SEBRING        FAIR      77  75  92 NE3       30.02F                  
OKEECHOBEE     FAIR      73  72  94 CALM      30.00F                  

$$
FLZ041-047-054-059-064-141-147-230600-
EAST CENTRAL FLORIDA
  
CITY           SKY/WX    TMP DP  RH WIND       PRES   REMARKS
DAYTONA BEACH  FAIR      78  76  93 CALM      30.04S                  
DELAND         FAIR      75  73  94 CALM      30.04S                  
JFK SPACE CTR  FAIR      76  58  52 CALM      30.02F                  
CAPE CANAVERAL FAIR      78  77  99 MISG      30.01F                  
PATRICK AFB    FAIR      83  80  90 E8        30.01F                  
MELBOURNE      FAIR      84  76  76 E9        30.01F                  
VERO BEACH     FAIR      76  75  97 E3        30.01F                  
FT PIERCE      FAIR      81  75  82 E5        30.00F                  
STUART         FAIR      82  73  74 E8        30.01F                  

STATION/POSITION SKY/WX   TEMP    WIND        PRES    WAVE   SWELL
                          AIR SEA DIR/SP/G            HT/PER HT/PER
                          (F)     (DEG/KT/KT) (MB)    (FT/S) (FT/S)
28.5N   80.2W              83 83  100/ 10/ 12 1016.6F
28.9N   78.5W              83 86   90/ 10/ 14 1017.4F   3/ 6   2/10
TRIDENT PIER               80 84   80/  2/  3 1018.2F
28.4N   80.5W                 82                N/A     2/ 4
27.5N   80.2W                 83                N/A     3/ 5

$$
FLZ050-056-061-142-242-148-248-149-249-151-251-155-255-
160-260-230600-
WEST CENTRAL FLORIDA
  
CITY           SKY/WX    TMP DP  RH WIND       PRES   REMARKS
CRYSTAL RIVER  FAIR      77  73  88 CALM      30.04S                  
INVERNESS      FAIR      77  77 100 CALM      30.05S                  
BROOKSVILLE    FAIR      75  72  90 CALM      30.04F                  
CLEARWATER AIR FAIR      81  73  78 SE3       30.02F                  
ST PETE CLEARW FAIR      81  74  79 S3        30.02F                  
TAMPA INTL     FAIR      82  74  76 E5        30.03F                  
PLANT CITY     FAIR      77  77 100 CALM      30.05F                  
MACDILL AFB    FAIR      81  75  83 SE5       30.02S                  
PETER O KNIGHT FAIR      81  79  94 E3        30.03S                  
ST PETERSBURG  FAIR      83  74  74 SE7       30.00F                  
SARASOTA       FAIR      79  75  87 SE5       30.00F                  
VENICE         FAIR      81  75  83 CALM      30.02S                  

STATION/POSITION SKY/WX   TEMP    WIND        PRES    WAVE   SWELL
                          AIR SEA DIR/SP/G            HT/PER HT/PER
                          (F)     (DEG/KT/KT) (MB)    (FT/S) (FT/S)
27.3N   84.2W                 86                N/A     2/ 8
CLEARWATER BEACH                  130/  4/  6 1016.9F
MIDDLE TAMPA BAY           81     150/  6/  7 1016.8F
VENICE                     80 86   50/  2/  3 1016.1F

$$
FLZ066-069-070-075>078-162-262-165-265-230600-
SOUTHWEST FLORIDA AND KEYS
  
CITY           SKY/WX    TMP DP  RH WIND       PRES   REMARKS
FT MYERS       NOT AVBL                                               
MARCO ISLAND   FAIR     N/A N/A N/A CALM        N/A                   
IMMOKALEE        N/A    N/A N/A N/A MISG        N/A                   
MARATHON       MOCLDY    84  75  74 N7        29.96F                  
KEY WEST NAS   FAIR      85  74  69 NE7       29.97F                  
KEY WEST INTL  MOCLDY    83  76  79 E5        29.98F                  

STATION/POSITION SKY/WX   TEMP    WIND        PRES    WAVE   SWELL
                          AIR SEA DIR/SP/G            HT/PER HT/PER
                          (F)     (DEG/KT/KT) (MB)    (FT/S) (FT/S)
NAPLES                     80 87              1015.8F
26.0N   85.6W              84 86   70/  4/  6 1016.2F   1/ 7   2/ 7
DRY TORTUGAS               84      20/  8/ 10 1015.5F
SAND KEY                   84      70/  7/  9 1014.0F
SOMBRERO KEY               84      20/  9/ 11 1015.1F
LONG KEY                   83                 1013.9F

$$
FLZ067-068-071>074-168-172>174-230600-
SOUTHEAST FLORIDA 
  
CITY           SKY/WX    TMP DP  RH WIND       PRES   REMARKS
W PALM BEACH   FAIR      83  74  74 NE8       29.98F                  
FT LAUDER-EXEC FAIR      82  75  79 E7        29.97F                  
FT LAUDERDALE  FAIR      81  74  79 NE10      29.96F                  
POMPANO BEACH  FAIR      83  74  74 E9        29.97F                  
PEMBROKE PINES FAIR      81  75  82 NE6       29.98F                  
OPA LOCKA      FAIR      81  74  79 NE5       29.97F                  
MIAMI          FAIR      81  75  82 VRB3      29.97F                  
WEST KENDALL   FAIR      81  75  82 N6        29.97F                  
HOMESTEAD      FAIR      80  76  87 N3        29.95F                  

STATION/POSITION SKY/WX   TEMP    WIND        PRES    WAVE   SWELL
                          AIR SEA DIR/SP/G            HT/PER HT/PER
                          (F)     (DEG/KT/KT) (MB)    (FT/S) (FT/S)
VIRGINIA KEY                       60/ 10/ 12 1014.3F
LAKE WORTH                 83 86   70/ 11/ 13 1016.5F
FOWEY ROCKS                82 86   50/ 14/ 15 1014.7F
SETTLEMENT POINT           81      90/ 10/ 12 1015.5F

$$